FW1042 Weather Reports


Display with metric or nautical units.
time (UTC)temp
F
wind
direction
speed
MPH
gust
MPH
rain 1hr
in
rain 24hr
in
rain mn
in
humidity
%
barometer
mb
20260904064936 80 186 2.0 6.0 0.00 0.00 0.00 79 1013.2
20260904064723 80 172 2.0 7.0 0.00 0.00 0.00 79 1013.2
20260904063924 80 200 2.0 7.0 0.00 0.00 0.00 79 1013.2
20260904063422 80 153 2.0 6.0 0.00 0.00 0.00 78 1013.2
20260904062920 80 146 2.0 6.0 0.00 0.00 0.00 78 1013.2
20260904062419 80 174 2.0 7.0 0.00 0.00 0.00 78 1013.2
20260904061917 80 248 2.0 7.0 0.00 0.00 0.00 77 1013.3
20260904061707 80 192 2.0 7.0 0.00 0.00 0.00 77 1013.2
20260904060919 80 204 2.0 7.0 0.00 0.00 0.00 77 1013.3
20260904060714 80 234 2.0 7.0 0.00 0.00 0.00 76 1013.3
20260904055917 80 148 3.0 9.0 0.00 0.00 0.00 76 1013.3
20260904055417 80 167 3.0 9.0 0.00 0.00 0.00 76 1013.3
20260904054917 80 113 3.0 7.0 0.00 0.00 0.00 75 1013.4
20260904054417 81 198 3.0 8.0 0.00 0.00 0.00 75 1013.4
20260904053917 81 129 3.0 10.0 0.00 0.00 0.00 75 1013.4
20260904053705 81 123 3.0 10.0 0.00 0.00 0.00 74 1013.3
20260904052905 81 171 3.0 8.0 0.00 0.00 0.00 74 1013.3
20260904052401 81 152 3.0 8.0 0.00 0.00 0.00 73 1013.1
20260904052158 81 144 3.0 8.0 0.00 0.00 0.00 73 1013.2
20260904051402 81 136 3.0 8.0 0.00 0.00 0.00 73 1013.2
20260904050901 81 150 2.0 7.0 0.00 0.00 0.00 73 1013.2
20260904050401 81 130 3.0 8.0 0.00 0.00 0.00 72 1013.1
20260904045900 81 163 3.0 8.0 0.00 0.00 0.00 72 1013.1
20260904045401 81 121 3.0 7.0 0.00 0.00 0.00 72 1013.1
20260904044902 81 192 3.0 9.0 0.00 0.00 0.00 72 1013.0
20260904044401 81 152 3.0 9.0 0.00 0.00 0.00 72 1013.1
20260904043901 81 140 3.0 8.0 0.00 0.00 0.00 71 1013.1
20260904043359 81 325 3.0 9.0 0.00 0.00 0.00 71 1013.2
20260904042858 82 160 3.0 9.0 0.00 0.00 0.00 71 1013.1
20260904042352 82 189 3.0 8.0 0.00 0.00 0.00 70 1013.1
20260904041846 82 88 3.0 8.0 0.00 0.00 0.00 70 1013.0
20260904041347 82 163 3.0 9.0 0.00 0.00 0.00 69 1013.2
20260904040846 82 119 2.0 9.0 0.00 0.00 0.00 68 1013.1
20260904040344 82 180 3.0 8.0 0.00 0.00 0.00 67 1013.2
20260904035844 82 146 3.0 8.0 0.00 0.00 0.00 66 1013.3
20260904035344 82 155 3.0 8.0 0.00 0.00 0.00 66 1013.1
20260904035226 83 153 4.0 10.0 0.00 0.00 0.00 65 1013.2
20260904035221 83 133 4.0 8.0 0.00 0.00 0.00 66 1013.1
20260904033845 83 170 3.0 10.0 0.00 0.00 0.00 65 1013.2
20260904033344 83 177 3.0 8.0 0.00 0.00 0.00 65 1013.2
20260904032844 83 132 4.0 10.0 0.00 0.00 0.00 66 1013.3
20260904032344 83 190 4.0 10.0 0.00 0.00 0.00 66 1013.3
20260904031846 83 142 3.0 8.0 0.00 0.00 0.00 66 1013.3
20260904031345 83 184 3.0 8.0 0.00 0.00 0.00 67 1013.3
20260904030839 84 162 2.0 7.0 0.00 0.00 0.00 68 1013.2
20260904030336 84 175 3.0 8.0 0.00 0.00 0.00 68 1013.1
20260904025837 84 185 4.0 9.0 0.00 0.00 0.00 68 1013.1
20260904025334 84 118 4.0 9.0 0.00 0.00 0.00 68 1013.0
20260904024834 84 146 5.0 12.0 0.00 0.00 0.00 68 1013.0
20260904024333 84 124 4.0 12.0 0.00 0.00 0.00 69 1012.9
20260904024129 84 156 3.0 9.0 0.00 0.00 0.00 69 1012.8
20260904023332 84 189 3.0 8.0 0.00 0.00 0.00 69 1012.8
20260904022830 85 144 3.0 8.0 0.00 0.00 0.00 69 1012.8
20260904022330 85 154 3.0 8.0 0.00 0.00 0.00 68 1012.6
20260904021828 85 147 3.0 8.0 0.00 0.00 0.00 68 1012.6
20260904021328 85 173 3.0 9.0 0.00 0.00 0.00 67 1012.5
20260904020829 85 187 3.0 9.0 0.00 0.00 0.00 67 1012.3
20260904020329 85 178 4.0 9.0 0.00 0.00 0.00 66 1012.3
20260904015814 85 96 4.0 8.0 0.00 0.00 0.00 66 1012.2
20260904015308 85 153 4.0 9.0 0.00 0.00 0.00 65 1012.2
20260904014802 85 134 4.0 9.0 0.00 0.00 0.00 64 1012.2
20260904014306 85 134 4.0 13.0 0.00 0.00 0.00 64 1012.0
20260904013804 85 123 5.0 14.0 0.00 0.00 0.00 64 1012.0
20260904013603 85 152 5.0 14.0 0.00 0.00 0.00 65 1012.0
20260904012802 86 132 3.0 9.0 0.00 0.00 0.00 66 1011.9
20260904012554 86 157 4.0 10.0 0.00 0.00 0.00 66 1011.9
20260904011803 86 142 4.0 10.0 0.00 0.00 0.00 66 1011.6
20260904011302 86 113 3.0 9.0 0.00 0.00 0.00 66 1011.6
20260904010804 86 171 3.0 9.0 0.00 0.00 0.00 66 1011.6
20260904010307 87 138 3.0 11.0 0.00 0.00 0.00 65 1011.6
20260904005803 87 147 4.0 11.0 0.00 0.00 0.00 65 1011.5
20260904005306 87 163 4.0 11.0 0.00 0.00 0.00 65 1011.4
20260904004802 87 136 4.0 11.0 0.00 0.00 0.00 65 1011.4
20260904004258 87 196 4.0 13.0 0.00 0.00 0.00 64 1011.3
20260904003758 88 155 4.0 13.0 0.00 0.00 0.00 64 1011.2
20260904003258 88 112 4.0 8.0 0.00 0.00 0.00 63 1011.4
20260904002803 89 96 4.0 11.0 0.00 0.00 0.00 63 1011.3
20260904002259 89 167 4.0 11.0 0.00 0.00 0.00 62 1011.2
20260904001758 89 146 3.0 10.0 0.00 0.00 0.00 61 1011.2
20260904001300 90 96 3.0 10.0 0.00 0.00 0.00 60 1011.1
20260904000758 90 130 4.0 12.0 0.00 0.00 0.00 59 1011.1
20260904000258 91 149 4.0 12.0 0.00 0.00 0.00 58 1011.1
20260903235759 91 159 4.0 9.0 0.00 0.00 0.00 57 1011.2
20260903235305 92 156 4.0 9.0 0.00 0.00 0.00 57 1011.1
20260903234759 92 140 3.0 10.0 0.00 0.00 0.00 57 1011.0
20260903234259 91 129 4.0 10.0 0.00 0.00 0.00 57 1010.9
20260903234052 0 129 4.0 10.0 0.00 0.00 0.00
20260903233125 91 148 4.0 11.0 0.00 0.00 0.00 57 1011.0
20260903232622 92 156 4.0 11.0 0.00 0.00 0.00 57 1010.8
20260903232223 92 163 3.0 12.0 0.00 0.00 0.00 57 1010.5
20260903232156 92 126 4.0 11.0 0.00 0.00 0.00 57 1010.8
20260903231121 92 195 4.0 12.0 0.00 0.00 0.00 57 1010.8
20260903230846 92 192 4.0 11.0 0.00 0.00 0.00 57 1010.8
20260903230633 92 192 4.0 11.0 0.00 0.00 0.00 57 1010.8
20260903230121 93 148 4.0 11.0 0.00 0.00 0.00 56 1010.8
20260903225623 93 184 3.0 8.0 0.00 0.00 0.00 56 1010.7
20260903225120 93 155 3.0 8.0 0.00 0.00 0.00 57 1010.7
20260903224956 92 151 3.0 8.0 0.00 0.00 0.00 58 1010.6
20260903224952 93 122 3.0 8.0 0.00 0.00 0.00 58 1010.6
20260903223616 92 129 4.0 9.0 0.00 0.00 0.00 59 1010.8
20260903223116 91 142 4.0 9.0 0.00 0.00 0.00 59 1010.8
20260903222614 91 188 3.0 9.0 0.00 0.00 0.00 61 1010.7
20260903222116 90 169 2.0 7.0 0.00 0.00 0.00 60 1010.7
20260903221612 91 150 3.0 8.0 0.00 0.00 0.00 60 1010.8
20260903221112 91 127 3.0 8.0 0.00 0.00 0.00 60 1010.8
20260903220611 92 140 4.0 10.0 0.00 0.00 0.00 59 1010.7
20260903220110 92 116 4.0 10.0 0.00 0.00 0.00 58 1010.7
20260903215610 92 136 3.0 10.0 0.00 0.00 0.00 57 1010.7
20260903215111 93 177 3.0 10.0 0.00 0.00 0.00 57 1010.7
20260903214614 93 142 4.0 12.0 0.00 0.00 0.00 56 1010.8
20260903214110 94 87 4.0 12.0 0.00 0.00 0.00 56 1010.8
20260903213610 94 157 4.0 11.0 0.00 0.00 0.00 57 1010.9
20260903213108 94 158 4.0 11.0 0.00 0.00 0.00 57 1010.9
20260903212609 94 183 4.0 10.0 0.00 0.00 0.00 58 1011.0
20260903212404 94 194 4.0 10.0 0.00 0.00 0.00 58 1011.0
20260903211608 94 80 4.0 11.0 0.00 0.00 0.00 57 1011.1
20260903211204 93 143 3.0 8.0 0.00 0.00 0.00 59 1011.0
20260903211142 93 162 4.0 11.0 0.00 0.00 0.00 58 1011.2
20260903210108 92 146 3.0 8.0 0.00 0.00 0.00 60 1011.2
20260903205903 92 140 4.0 8.0 0.00 0.00 0.00 60 1011.4
20260903205208 92 207 4.0 11.0 0.00 0.00 0.00 61 1011.3
20260903205140 92 181 4.0 11.0 0.00 0.00 0.00 60 1011.4
20260903204108 92 164 4.0 10.0 0.00 0.00 0.00 59 1011.6
20260903203610 93 178 5.0 12.0 0.00 0.00 0.00 59 1011.6
20260903203159 93 203 5.0 12.0 0.00 0.00 0.00 60 1011.7
20260903202608 92 235 4.0 11.0 0.00 0.00 0.00 60 1011.8
20260903202109 92 186 4.0 11.0 0.00 0.00 0.00 63 1011.8
20260903201609 90 176 5.0 11.0 0.00 0.00 0.00 63 1011.9
20260903201108 91 0.0 0.0 0.00 0.00 0.00 61
20260903194614 90 162 5.0 11.0 0.00 0.00 0.00 66 1012.1
20260903194116 89 98 5.0 11.0 0.00 0.00 0.00 64 1012.2
20260903193659 90 157 5.0 11.0 0.00 0.00 0.00 65 1012.2
20260903192613 89 163 5.0 11.0 0.00 0.00 0.00 66 1012.3
20260903192114 89 144 5.0 12.0 0.00 0.00 0.00 66 1012.4
20260903191614 89 171 6.0 17.0 0.00 0.00 0.00 66 1012.5
20260903191410 90 223 5.0 17.0 0.00 0.00 0.00 66 1012.6
20260903190614 89 218 5.0 12.0 0.00 0.00 0.00 68 1012.6
20260903190114 88 116 4.0 12.0 0.00 0.00 0.00 69 1012.6
20260903185615 88 150 5.0 13.0 0.00 0.00 0.00 68 1012.8
20260903185412 88 174 4.0 13.0 0.00 0.00 0.00 69 1012.9
20260903184614 88 165 5.0 13.0 0.00 0.00 0.00 70 1012.9
20260903184142 88 207 6.0 13.0 0.00 0.00 0.00 69 1013.0
20260903183114 88 165 5.0 13.0 0.00 0.00 0.00 69 1013.1
20260903182614 88 182 5.0 11.0 0.00 0.00 0.00 72 1013.0
20260903182406 87 168 5.0 11.0 0.00 0.00 0.00 71 1013.1
20260903181614 88 325 4.0 10.0 0.00 0.00 0.00 71 1013.3
20260903181115 88 155 4.0 12.0 0.00 0.00 0.00 71 1013.3
20260903180613 87 155 5.0 12.0 0.00 0.00 0.00 72 1013.3
20260903180117 87 134 5.0 11.0 0.00 0.00 0.00 72 1013.5
20260903175612 87 149 4.0 11.0 0.00 0.00 0.00 72 1013.5
20260903175112 87 137 3.0 11.0 0.00 0.00 0.00 73 1013.4
20260903174612 87 163 3.0 11.0 0.00 0.00 0.00 74 1013.4
20260903174112 87 142 3.0 11.0 0.00 0.00 0.00 74 1013.6
20260903173914 87 107 3.0 8.0 0.00 0.00 0.00 74 1013.7
20260903173111 87 355 4.0 11.0 0.00 0.00 0.00 75 1013.6
20260903172612 86 96 4.0 11.0 0.00 0.00 0.00 75 1013.7
20260903172111 87 132 4.0 10.0 0.00 0.00 0.00 74 1013.7
20260903171612 87 165 5.0 12.0 0.00 0.00 0.00 73 1013.8
20260903171112 87 167 5.0 12.0 0.00 0.00 0.00 73 1013.9
20260903170612 87 210 4.0 12.0 0.00 0.00 0.00 75 1013.8
20260903170112 86 166 4.0 12.0 0.00 0.00 0.00 75 1013.8
20260903165616 86 147 4.0 9.0 0.00 0.00 0.00 75 1013.8
20260903165402 86 128 4.0 9.0 0.00 0.00 0.00 75 1013.8
20260903164613 86 176 3.0 9.0 0.00 0.00 0.00 76 1013.7
20260903164110 86 199 4.0 12.0 0.00 0.00 0.00 76 1013.8
20260903163610 86 178 4.0 12.0 0.00 0.00 0.00 76 1013.8
20260903163110 85 211 3.0 8.0 0.00 0.00 0.00 78 1013.9
20260903162609 85 171 3.0 8.0 0.00 0.00 0.00 79 1013.8
20260903162114 84 140 3.0 7.0 0.00 0.00 0.00 81 1013.9
20260903161609 83 127 3.0 7.0 0.00 0.00 0.00 80 1013.8
20260903161110 83 127 3.0 9.0 0.00 0.00 0.00 81 1013.9
20260903160607 83 212 3.0 9.0 0.00 0.00 0.00 81 1013.8
20260903160108 83 123 3.0 9.0 0.00 0.00 0.00 81 1013.8
20260903155640 83 102 4.0 9.0 0.00 0.00 0.00 81 1013.9
20260903154607 83 209 4.0 9.0 0.00 0.00 0.00 80 1013.7
20260903154106 83 200 4.0 9.0 0.00 0.00 0.00 80 1013.8
20260903153605 83 124 3.0 9.0 0.00 0.00 0.00 80 1013.7
20260903153106 83 108 3.0 9.0 0.00 0.00 0.00 81 1013.7
20260903152606 83 148 3.0 9.0 0.00 0.00 0.00 81 1013.7
20260903152106 83 168 3.0 10.0 0.00 0.00 0.00 82 1013.7
20260903151901 82 145 4.0 10.0 0.00 0.00 0.00 82 1013.7
20260903151109 82 192 3.0 7.0 0.00 0.00 0.00 83 1013.6
20260903150605 82 168 3.0 7.0 0.00 0.00 0.00 84 1013.7
20260903150106 81 152 3.0 7.0 0.00 0.00 0.00 84 1013.8
20260903145605 81 158 3.0 9.0 0.00 0.00 0.00 85 1013.7
20260903145106 81 130 3.0 9.0 0.00 0.00 0.00 85 1013.7
20260903144904 80 170 2.0 6.0 0.00 0.00 0.00 86 1013.8
20260903144103 80 161 3.0 9.0 0.00 0.00 0.00 86 1013.8
20260903143606 80 120 3.0 9.0 0.00 0.00 0.00 86 1013.7
20260903143102 80 178 3.0 10.0 0.00 0.00 0.00 86 1013.7
20260903142602 80 182 3.0 10.0 0.00 0.00 0.00 86 1013.8
20260903142101 80 117 2.0 6.0 0.00 0.00 0.00 86 1013.8
20260903141601 80 126 2.0 8.0 0.00 0.00 0.00 86 1013.8
20260903141103 80 143 2.0 8.0 0.00 0.00 0.00 86 1014.0
20260903140555 80 98 2.0 7.0 0.00 0.00 0.00 86 1013.9
20260903140050 80 61 2.0 7.0 0.00 0.00 0.00 86 1013.9
20260903135549 80 182 2.0 5.0 0.00 0.00 0.00 86 1013.8
20260903135051 79 119 2.0 7.0 0.00 0.00 0.00 86 1013.8
20260903134838 79 94 2.0 7.0 0.00 0.00 0.00 85 1013.8
20260903134048 79 328 1.0 4.0 0.00 0.00 0.00 85 1013.7
20260903133547 79 104 1.0 3.0 0.00 0.00 0.00 85 1013.8
20260903133048 80 304 1.0 4.0 0.00 0.00 0.00 85 1013.7
20260903132549 79 72 2.0 8.0 0.00 0.00 0.00 85 1013.7
20260903132048 79 174 2.0 8.0 0.00 0.00 0.00 85 1013.8
20260903131548 79 117 2.0 5.0 0.00 0.00 0.00 85 1013.7
20260903131048 79 157 2.0 5.0 0.00 0.00 0.00 85 1013.7
20260903130548 79 187 1.0 4.0 0.00 0.00 0.00 85 1013.6
20260903130346 79 200 1.0 4.0 0.00 0.00 0.00 85 1013.6
20260903125549 79 184 1.0 4.0 0.00 0.00 0.00 85 1013.6
20260903125048 79 163 2.0 6.0 0.00 0.00 0.00 85 1013.6
20260903124548 79 182 2.0 6.0 0.00 0.00 0.00 85 1013.5
20260903124047 78 168 2.0 6.0 0.00 0.00 0.00 85 1013.5
20260903123841 78 205 2.0 9.0 0.00 0.00 0.00 86 1013.4
20260903123048 78 138 2.0 9.0 0.00 0.00 0.00 85 1013.4
20260903122545 78 171 2.0 7.0 0.00 0.00 0.00 85 1013.4
20260903122045 78 161 1.0 7.0 0.00 0.00 0.00 85 1013.3
20260903121543 78 103 1.0 4.0 0.00 0.00 0.00 85 1013.2
20260903121043 78 144 1.0 3.0 0.00 0.00 0.00 85 1013.1
20260903120544 78 172 1.0 4.0 0.00 0.00 0.00 85 1013.1
20260903120041 78 188 1.0 4.0 0.00 0.00 0.00 85 1013.2
20260903115837 78 130 1.0 3.0 0.00 0.00 0.00 85 1013.0
20260903115337 78 134 1.0 3.0 0.00 0.00 0.00 85 1013.0
20260903114536 78 155 1.0 3.0 0.00 0.00 0.00 85 1012.9
20260903114036 78 161 1.0 4.0 0.00 0.00 0.00 86 1012.9
20260903113535 78 147 1.0 4.0 0.00 0.00 0.00 86 1012.9
20260903113035 78 225 1.0 4.0 0.00 0.00 0.00 87 1012.9
20260903112538 78 173 1.0 4.0 0.00 0.00 0.00 87 1013.0
20260903112033 78 172 0.0 3.0 0.00 0.00 0.00 88 1013.0
20260903111532 78 122 0.0 3.0 0.00 0.00 0.00 88 1013.1
20260903111030 78 173 0.0 2.0 0.00 0.00 0.00 88 1013.0
20260903110748 78 144 0.0 2.0 0.00 0.00 0.00 88 1012.7
20260903110704 78 109 0.0 2.0 0.00 0.00 0.00 88 1012.9
20260903110436 78 153 0.0 3.0 0.00 0.00 0.00 88 1012.7
20260903110338 78 144 0.0 0.0 0.00 0.00 0.00 88 1012.9
20260903110218 78 144 0.0 1.0 0.00 0.00 0.00 88 1012.6
20260903110116 78 144 0.0 2.0 0.00 0.00 0.00 88 1012.8
20260903104017 78 153 0.0 3.0 0.00 0.00 0.00 88 1012.7
20260903103517 78 193 1.0 4.0 0.00 0.00 0.00 88 1012.6
20260903103021 78 167 1.0 4.0 0.00 0.00 0.00 88 1012.5
20260903102517 78 153 1.0 3.0 0.00 0.00 0.00 88 1012.6
20260903102017 78 182 1.0 6.0 0.00 0.00 0.00 88 1012.7
20260903101517 78 194 1.0 6.0 0.00 0.00 0.00 88 1012.8
20260903101017 78 182 1.0 4.0 0.00 0.00 0.00 88 1012.7
20260903100516 78 140 1.0 3.0 0.00 0.00 0.00 88 1012.7
20260903100013 78 153 0.0 2.0 0.00 0.00 0.00 88 1012.7
20260903095805 78 174 0.0 4.0 0.00 0.00 0.00 88 1012.7
20260903095013 78 202 1.0 4.0 0.00 0.00 0.00 88 1012.7
20260903094510 78 126 0.0 3.0 0.00 0.00 0.00 87 1012.8
20260903094009 78 21 1.0 3.0 0.00 0.00 0.00 87 1012.9
20260903093808 78 119 1.0 3.0 0.00 0.00 0.00 87 1012.9
20260903093009 78 125 1.0 3.0 0.00 0.00 0.00 87 1012.8
20260903092803 78 122 1.0 3.0 0.00 0.00 0.00 86 1012.9
20260903092003 78 84 1.0 4.0 0.00 0.00 0.00 86 1012.8
20260903091501 78 315 1.0 4.0 0.00 0.00 0.00 86 1012.8
20260903091256 78 101 1.0 3.0 0.00 0.00 0.00 85 1012.6
20260903090503 79 5 1.0 6.0 0.00 0.00 0.00 85 1012.7
20260903090306 79 42 1.0 6.0 0.00 0.00 0.00 84 1012.7
20260903085503 79 211 1.0 3.0 0.00 0.00 0.00 84 1012.7
20260903085002 79 39 1.0 6.0 0.00 0.00 0.00 83 1012.6
20260903084501 79 15 2.0 6.0 0.00 0.00 0.00 83 1012.7
20260903084000 80 86 2.0 6.0 0.00 0.00 0.00 82 1012.8
20260903083459 80 214 2.0 4.0 0.00 0.00 0.00 82 1012.7
20260903082959 80 115 2.0 7.0 0.00 0.00 0.00 81 1012.7
20260903082500 80 160 2.0 7.0 0.00 0.00 0.00 81 1012.6
20260903081959 80 288 2.0 7.0 0.00 0.00 0.00 81 1012.6
20260903081754 80 18 1.0 7.0 0.00 0.00 0.00 80 1012.7
20260903080959 80 217 1.0 4.0 0.00 0.00 0.00 80 1012.7
20260903080759 80 43 1.0 4.0 0.00 0.00 0.00 80 1012.5
20260903080302 80 82 1.0 4.0 0.00 0.00 0.00 80 1012.5
20260903075457 80 92 1.0 7.0 0.00 0.00 0.00 80 1012.5
20260903074959 80 176 1.0 7.0 0.00 0.00 0.00 80 1012.5
20260903074457 80 102 1.0 3.0 0.00 0.00 0.00 80 1012.6
20260903073957 80 128 1.0 6.0 0.00 0.00 0.00 80 1012.5
20260903073457 80 175 1.0 6.0 0.00 0.00 0.00 80 1012.5
20260903072956 80 167 1.0 3.0 0.00 0.00 0.00 80 1012.7
20260903072457 80 226 1.0 3.0 0.00 0.00 0.00 80 1012.7
20260903071956 80 154 1.0 5.0 0.00 0.00 0.00 80 1012.8
20260903071454 80 117 1.0 5.0 0.00 0.00 0.00 80 1012.8
20260903070951 80 139 1.0 6.0 0.00 0.00 0.00 80 1012.8
20260903070445 80 111 1.0 6.0 0.00 0.00 0.00 80 1012.8
20260903065944 80 154 1.0 6.0 0.00 0.00 0.00 80 1012.8
20260903065443 80 155 2.0 4.0 0.00 0.00 0.00 79 1012.9